Track COSMOS 646 now! 10-day predictions COSMOS 646 is classified as:
1 7270U 74024F 24326.15728191 -.00000000 00000-0 97552-4 0 9997 2 7270 74.0149 119.8860 0051848 204.0377 274.2882 12.55014159317529